This is the latest recevied weather packets stored in our database for station/object WD4HMR. If no packets are shown the sender has not sent any weather packets the latest 10 day(s).
| Time | Temp. | Humidity | Pressure | Rain* | Wind** | Luminosity | Snow |
|---|---|---|---|---|---|---|---|
| 1777724104 | 11.67° C | 70% | 1015.6 hPa | 0 mm | - | 55 W/m² | - |
| 1777723804 | 11.67° C | 70% | 1015.5 hPa | 0 mm | - | 45 W/m² | - |
| 1777723203 | 11.67° C | 71% | 1015.4 hPa | 0 mm | - | 28 W/m² | - |
| 1777722904 | 11.67° C | 71% | 1015.4 hPa | 0 mm | - | 20 W/m² | - |
| 1777722615 | 11.67° C | 70% | 1015.5 hPa | 0 mm | - | 12 W/m² | - |
| 1777721704 | 11.67° C | 69% | 1015.5 hPa | 0 mm | - | 16 W/m² | - |
| 1777720804 | 11.67° C | 67% | 1015.4 hPa | 0 mm | - | 7 W/m² | - |
| 1777720504 | 11.67° C | 66% | 1015.3 hPa | 0 mm | - | 8 W/m² | - |
| 1777719904 | 11.67° C | 68% | 1015 hPa | 0 mm | - | 2 W/m² | - |
| 1777718704 | 11.67° C | 70% | 1015 hPa | 0 mm | - | 0 W/m² | - |
| 1777718103 | 11.67° C | 70% | 1015.1 hPa | 0 mm | - | 0 W/m² | - |
| 1777717204 | 11.67° C | 69% | 1015.3 hPa | 0 mm | - | 0 W/m² | - |
| 1777716904 | 11.67° C | 70% | 1015.5 hPa | 0 mm | - | 0 W/m² | - |
| 1777715703 | 12.22° C | 68% | 1015.1 hPa | 0 mm | - | 0 W/m² | - |
| 1777715404 | 12.22° C | 68% | 1015.2 hPa | 0 mm | - | 0 W/m² | - |
| 1777710903 | 13.33° C | 64% | 1015.1 hPa | 0 mm | - | 0 W/m² | - |
| 1777710604 | 13.33° C | 64% | 1015.1 hPa | 0 mm | - | 0 W/m² | - |
| 1777709404 | 12.78° C | 73% | 1014.7 hPa | 0 mm | - | 0 W/m² | - |
| 1777708803 | 12.78° C | 75% | 1014.8 hPa | 0 mm | - | 0 W/m² | - |
| 1777704904 | 13.33° C | 81% | 1015.2 hPa | 0 mm | - | 0 W/m² | - |
| 1777704604 | 13.33° C | 82% | 1015.2 hPa | 0 mm | - | 0 W/m² | - |
| 1777704004 | 13.89° C | 82% | 1015.3 hPa | 0 mm | - | 0 W/m² | - |
| 1777703704 | 13.89° C | 81% | 1015.3 hPa | 0 mm | - | 0 W/m² | - |
| 1777703403 | 13.89° C | 81% | 1015.3 hPa | 0 mm | - | 0 W/m² | - |
| 1777702804 | 13.89° C | 81% | 1015.3 hPa | 0 mm | - | 0 W/m² | - |
* Rain latest hour (hover to see other rain measurements)
** Current wind speed in m/s (hover to see current wind gust speed)